QPF
0.04 0.05 0.04 0.04 0.04 0.05 0.07 0.07 0.05 0.05 0.06 0.06 0.07 0.07 0.08 0.08 0.07 0.06 0.06 0.06 0.05 0.05 0.03 0.03 0.03 0.02 0.03 0.02 0.01 0.01 0.01 0.01 0.01 0.01 0.01 0.01 0.01 0.01 0.01 0.00 0.00 0.00 0.01
0.03 0.04 0.04 0.04 0.04 0.04 0.05 0.06 0.07 0.07 0.07 0.07 0.07 0.07 0.06 0.06 0.07 0.07 0.07 0.06 0.06 0.05 0.04 0.03 0.03 0.03 0.03 0.02 0.02 0.01 0.01 0.01 0.01 0.02 0.02 0.01 0.01 0.01 0.00 0.00 0.00 0.00 0.00
0.03 0.04 0.05 0.05 0.05 0.05 0.05 0.06 0.07 0.07 0.07 0.08 0.08 0.07 0.06 0.06 0.07 0.07 0.07 0.07 0.06 0.05 0.05 0.05 0.04 0.04 0.03 0.03 0.03 0.02 0.02 0.02 0.01 0.02 0.02 0.01 0.01 0.01 0.01 0.01 0.00 0.01 0.00
0.06 0.06 0.07 0.08 0.07 0.08 0.10 0.10 0.10 0.10 0.09 0.10 0.10 0.09 0.09 0.08 0.07 0.07 0.07 0.06 0.05 0.04 0.04 0.04 0.04 0.04 0.05 0.05 0.03 0.03 0.02 0.02 0.01 0.01 0.01 0.01 0.01 0.01 0.01 0.01 0.02 0.01 0.01
0.08 0.10 0.14 0.17 0.18 0.17 0.16 0.15 0.15 0.13 0.11 0.11 0.10 0.11 0.11 0.10 0.10 0.09 0.07 0.06 0.05 0.05 0.05 0.06 0.06 0.05 0.05 0.06 0.04 0.04 0.04 0.03 0.03 0.02 0.02 0.02 0.02 0.02 0.02 0.02 0.02 0.02 0.01
0.06 0.09 0.10 0.13 0.17 0.18 0.15 0.14 0.13 0.11 0.10 0.11 0.11 0.11 0.10 0.08 0.09 0.09 0.08 0.08 0.07 0.08 0.08 0.07 0.06 0.06 0.06 0.05 0.04 0.03 0.03 0.03 0.03 0.03 0.03 0.03 0.02 0.02 0.01 0.01 0.01 0.01 0.01
0.04 0.06 0.05 0.07 0.10 0.15 0.15 0.14 0.15 0.12 0.09 0.08 0.08 0.08 0.07 0.07 0.07 0.07 0.08 0.09 0.10 0.10 0.10 0.08 0.07 0.06 0.06 0.05 0.04 0.03 0.02 0.02 0.02 0.02 0.02 0.02 0.02 0.01 0.01 0.01 0.01 0.01 0.01
0.03 0.04 0.04 0.05 0.07 0.10 0.13 0.14 0.15 0.14 0.11 0.09 0.07 0.07 0.07 0.06 0.06 0.06 0.08 0.08 0.08 0.09 0.09 0.08 0.07 0.06 0.05 0.05 0.04 0.04 0.04 0.04 0.03 0.03 0.02 0.02 0.01 0.01 0.01 0.01 0.01 0.01 0.01
0.03 0.03 0.04 0.05 0.06 0.07 0.08 0.11 0.13 0.11 0.10 0.09 0.08 0.07 0.07 0.08 0.08 0.07 0.06 0.07 0.07 0.06 0.05 0.05 0.04 0.04 0.05 0.05 0.05 0.05 0.05 0.06 0.06 0.06 0.04 0.03 0.02 0.01 0.01 0.01 0.01 0.01 0.01
0.03 0.03 0.05 0.07 0.06 0.06 0.07 0.09 0.09 0.09 0.11 0.10 0.09 0.09 0.08 0.08 0.09 0.08 0.06 0.05 0.04 0.03 0.03 0.03 0.05 0.05 0.06 0.06 0.05 0.04 0.04 0.04 0.03 0.03 0.03 0.02 0.01 0.01 0.01 0.00 0.00 0.00 0.00
0.03 0.03 0.05 0.06 0.07 0.08 0.10 0.12 0.13 0.14 0.16 0.18 0.17 0.16 0.14 0.12 0.10 0.07 0.05 0.04 0.03 0.03 0.02 0.02 0.04 0.05 0.04 0.04 0.03 0.02 0.02 0.01 0.01 0.01 0.01 0.01 0.00 0.00 0.00 0.00 0.00 0.00 0.00
0.03 0.04 0.04 0.05 0.06 0.08 0.12 0.17 0.19 0.18 0.19 0.21 0.20 0.17 0.13 0.10 0.09 0.07 0.05 0.04 0.04 0.04 0.04 0.04 0.04 0.04 0.03 0.02 0.02 0.02 0.02 0.02 0.01 0.01 0.01 0.01 0.01 0.00 0.00 0.00 0.00 0.00 0.00
0.07 0.06 0.07 0.09 0.09 0.10 0.13 0.17 0.18 0.16 0.14 0.12 0.10 0.09 0.09 0.09 0.09 0.09 0.07 0.07 0.06 0.05 0.05 0.04 0.04 0.03 0.03 0.03 0.03 0.03 0.03 0.02 0.02 0.02 0.01 0.01 0.01 0.00 0.00 0.00 0.00 0.00 0.00
0.11 0.13 0.14 0.14 0.14 0.14 0.15 0.15 0.15 0.15 0.12 0.10 0.09 0.09 0.08 0.08 0.09 0.09 0.09 0.07 0.06 0.04 0.04 0.05 0.04 0.03 0.03 0.02 0.02 0.01 0.01 0.01 0.01 0.01 0.00 0.00 0.00 0.00 0.00 0.00 0.00 0.00 0.00
0.11 0.13 0.21 0.24 0.20 0.16 0.16 0.18 0.15 0.15 0.15 0.15 0.14 0.14 0.14 0.14 0.14 0.13 0.11 0.09 0.07 0.06 0.05 0.04 0.03 0.02 0.01 0.01 0.00 0.00 0.00 0.00 0.00 0.00 0.00 0.00 0.00 0.00 0.00 0.00 0.00 0.00 0.00
0.11 0.13 0.15 0.16 0.17 0.19 0.18 0.18 0.21 0.21 0.23 0.22 0.21 0.19 0.18 0.17 0.15 0.11 0.08 0.07 0.05 0.04 0.02 0.02 0.01 0.01 0.00 0.00 0.00 0.00 0.00 0.00 0.00 0.00 0.00 0.00 0.00 0.00 0.00 0.00 0.00 0.00 0.00
0.11 0.12 0.11 0.10 0.11 0.14 0.15 0.14 0.15 0.15 0.15 0.15 0.15 0.13 0.10 0.08 0.06 0.05 0.04 0.03 0.03 0.02 0.02 0.02 0.01 0.01 0.01 0.01 0.00 0.00 0.00 0.00 0.00 0.00 0.00 0.00 0.00 0.00 0.00 0.00 0.00 0.00 0.00
0.08 0.10 0.10 0.09 0.08 0.08 0.08 0.07 0.07 0.08 0.08 0.08 0.08 0.07 0.05 0.04 0.03 0.02 0.02 0.01 0.01 0.01 0.01 0.00 0.00 0.00 0.00 0.00 0.00 0.00 0.00 0.00 0.00 0.00 0.00 0.00 0.00 0.00 0.00 0.00 0.00 0.00 0.00
0.08 0.09 0.09 0.10 0.09 0.09 0.10 0.09 0.08 0.07 0.06 0.05 0.04 0.04 0.03 0.02 0.01 0.01 0.00 0.00 0.00 0.00 0.00 0.00 0.00 0.00 0.00 0.00 0.00 0.00 0.00 0.00 0.00 0.00 0.00 0.00 0.00 0.00 0.00 0.00 0.00 0.00 0.00
0.14 0.15 0.13 0.13 0.13 0.12 0.11 0.08 0.06 0.04 0.04 0.03 0.02 0.02 0.01 0.01 0.00 0.00 0.00 0.00 0.00 0.00 0.00 0.00 0.00 0.00 0.00 0.00 0.00 0.00 0.00 0.00 0.00 0.00 0.00 0.00 0.00 0.00 0.00 0.00 0.00 0.00 0.00
0.12 0.13 0.13 0.11 0.11 0.11 0.09 0.06 0.04 0.02 0.01 0.01 0.01 0.00 0.00 0.00 0.00 0.00 0.00 0.00 0.00 0.00 0.00 0.00 0.00 0.00 0.00 0.00 0.00 0.00 0.00 0.00 0.00 0.00 0.00 0.00 0.00 0.00 0.00 0.00 0.00 0.00 0.00
0.10 0.09 0.09 0.08 0.07 0.06 0.06 0.04 0.03 0.02 0.01 0.00 0.00 0.00 0.00 0.00 0.00 0.00 0.00 0.00 0.00 0.00 0.00 0.00 0.00 0.00 0.00 0.00 0.00 0.00 0.00 0.00 0.00 0.00 0.00 0.00 0.00 0.00 0.00 0.00 0.00 0.00 0.00
0.06 0.07 0.07 0.07 0.06 0.06 0.05 0.03 0.02 0.02 0.01 0.00 0.00 0.00 0.00 0.00 0.00 0.00 0.00 0.00 0.00 0.00 0.00 0.00 0.00 0.00 0.00 0.00 0.00 0.00 0.00 0.00 0.00 0.00 0.00 0.00 0.00 0.00 0.00 0.00 0.00 0.01 0.01
0.03 0.03 0.03 0.03 0.03 0.03 0.03 0.02 0.01 0.01 0.00 0.00 0.00 0.00 0.00 0.00 0.00 0.00 0.00 0.00 0.00 0.00 0.00 0.00 0.00 0.00 0.00 0.00 0.00 0.00 0.00 0.00 0.00 0.00 0.00 0.00 0.00 0.00 0.00 0.01 0.01 0.01 0.01
0.02 0.02 0.02 0.03 0.03 0.02 0.01 0.01 0.01 0.00 0.00 0.00 0.00 0.00 0.00 0.00 0.00 0.00 0.00 0.00 0.00 0.00 0.00 0.00 0.00 0.00 0.00 0.00 0.00 0.00 0.00 0.00 0.00 0.00 0.00 0.00 0.00 0.01 0.01 0.01 0.01 0.01 0.01
0.01 0.01 0.02 0.02 0.02 0.01 0.01 0.01 0.01 0.00 0.00 0.00 0.00 0.00 0.00 0.00 0.00 0.00 0.00 0.00 0.00 0.00 0.00 0.00 0.00 0.00 0.00 0.00 0.00 0.00 0.00 0.00 0.00 0.00 0.00 0.00 0.00 0.01 0.00 0.01 0.01 0.01 0.01
MSLP
1009.32 1009.30 1009.29 1009.31 1009.39 1009.55 1009.81 1010.18 1010.64 1011.20 1011.81 1012.46 1013.11 1013.73 1014.32 1014.86 1015.36 1015.82 1016.25 1016.65 1017.03 1017.38 1017.69 1017.94 1018.15 1018.30 1018.40 1018.47 1018.52 1018.58 1018.65 1018.75 1018.87 1019.00 1019.12 1019.22 1019.28 1019.29 1019.24 1019.16 1019.05 1018.93 1018.82
1008.95 1008.77 1008.63 1008.56 1008.59 1008.74 1009.03 1009.45 1009.99 1010.62 1011.31 1012.02 1012.72 1013.39 1014.02 1014.59 1015.13 1015.63 1016.12 1016.58 1017.01 1017.42 1017.77 1018.07 1018.30 1018.47 1018.58 1018.65 1018.70 1018.77 1018.87 1019.00 1019.16 1019.33 1019.50 1019.64 1019.71 1019.71 1019.64 1019.49 1019.30 1019.08 1018.87
1008.75 1008.45 1008.20 1008.05 1008.03 1008.17 1008.47 1008.93 1009.52 1010.21 1010.96 1011.73 1012.49 1013.20 1013.87 1014.49 1015.08 1015.64 1016.18 1016.71 1017.22 1017.69 1018.11 1018.46 1018.73 1018.92 1019.05 1019.13 1019.19 1019.26 1019.36 1019.51 1019.69 1019.89 1020.08 1020.23 1020.31 1020.29 1020.18 1019.97 1019.69 1019.37 1019.05
1008.75 1008.38 1008.06 1007.85 1007.79 1007.91 1008.21 1008.69 1009.32 1010.05 1010.85 1011.67 1012.47 1013.24 1013.96 1014.63 1015.27 1015.89 1016.50 1017.10 1017.68 1018.23 1018.71 1019.12 1019.44 1019.66 1019.81 1019.90 1019.96 1020.03 1020.13 1020.26 1020.44 1020.64 1020.82 1020.96 1021.02 1020.98 1020.82 1020.55 1020.19 1019.78 1019.35
1008.96 1008.58 1008.24 1008.01 1007.93 1008.03 1008.32 1008.80 1009.45 1010.20 1011.03 1011.89 1012.73 1013.54 1014.31 1015.04 1015.74 1016.42 1017.09 1017.76 1018.40 1019.01 1019.56 1020.02 1020.38 1020.64 1020.80 1020.90 1020.95 1021.01 1021.08 1021.19 1021.33 1021.50 1021.66 1021.77 1021.79 1021.71 1021.51 1021.18 1020.76 1020.27 1019.75
1009.39 1009.06 1008.75 1008.53 1008.45 1008.55 1008.83 1009.31 1009.94 1010.70 1011.54 1012.42 1013.29 1014.14 1014.95 1015.72 1016.46 1017.19 1017.92 1018.63 1019.33 1019.98 1020.57 1021.07 1021.46 1021.74 1021.92 1022.01 1022.05 1022.07 1022.11 1022.17 1022.26 1022.38 1022.49 1022.55 1022.53 1022.41 1022.17 1021.80 1021.33 1020.79 1020.22
1010.02 1009.78 1009.56 1009.39 1009.34 1009.44 1009.72 1010.18 1010.80 1011.54 1012.38 1013.26 1014.14 1015.00 1015.84 1016.64 1017.41 1018.17 1018.92 1019.66 1020.37 1021.05 1021.65 1022.16 1022.56 1022.85 1023.02 1023.10 1023.12 1023.10 1023.09 1023.09 1023.13 1023.17 1023.22 1023.23 1023.17 1023.01 1022.74 1022.35 1021.86 1021.30 1020.69
1010.78 1010.69 1010.58 1010.50 1010.50 1010.64 1010.92 1011.37 1011.96 1012.68 1013.49 1014.36 1015.23 1016.10 1016.93 1017.74 1018.52 1019.28 1020.02 1020.75 1021.45 1022.10 1022.69 1023.18 1023.57 1023.84 1023.99 1024.05 1024.04 1023.99 1023.92 1023.87 1023.83 1023.81 1023.79 1023.74 1023.64 1023.46 1023.18 1022.79 1022.31 1021.75 1021.16
1011.60 1011.68 1011.71 1011.75 1011.84 1012.02 1012.32 1012.76 1013.34 1014.03 1014.81 1015.65 1016.50 1017.35 1018.17 1018.95 1019.71 1020.44 1021.14 1021.82 1022.46 1023.06 1023.59 1024.04 1024.39 1024.63 1024.76 1024.79 1024.75 1024.67 1024.56 1024.45 1024.35 1024.27 1024.19 1024.09 1023.95 1023.75 1023.47 1023.10 1022.65 1022.13 1021.57
1012.39 1012.64 1012.84 1013.01 1013.21 1013.46 1013.80 1014.26 1014.82 1015.49 1016.24 1017.04 1017.86 1018.67 1019.45 1020.19 1020.90 1021.57 1022.20 1022.80 1023.36 1023.88 1024.33 1024.71 1025.00 1025.20 1025.30 1025.31 1025.25 1025.14 1024.99 1024.84 1024.70 1024.56 1024.43 1024.28 1024.12 1023.91 1023.64 1023.30 1022.90 1022.44 1021.93
1013.07 1013.50 1013.86 1014.19 1014.51 1014.86 1015.26 1015.74 1016.31 1016.97 1017.69 1018.45 1019.22 1019.98 1020.71 1021.39 1022.03 1022.61 1023.16 1023.66 1024.11 1024.53 1024.89 1025.19 1025.42 1025.57 1025.65 1025.64 1025.56 1025.44 1025.28 1025.11 1024.93 1024.75 1024.57 1024.39 1024.20 1023.98 1023.72 1023.41 1023.06 1022.66 1022.22
1013.62 1014.21 1014.74 1015.22 1015.68 1016.13 1016.61 1017.14 1017.73 1018.38 1019.07 1019.79 1020.52 1021.23 1021.89 1022.50 1023.05 1023.54 1023.98 1024.37 1024.72 1025.03 1025.29 1025.51 1025.68 1025.80 1025.85 1025.83 1025.76 1025.64 1025.48 1025.30 1025.10 1024.90 1024.69 1024.48 1024.25 1024.02 1023.77 1023.48 1023.17 1022.82 1022.44
1014.06 1014.79 1015.48 1016.11 1016.70 1017.26 1017.82 1018.41 1019.02 1019.67 1020.34 1021.02 1021.70 1022.34 1022.94 1023.47 1023.94 1024.33 1024.67 1024.95 1025.19 1025.40 1025.58 1025.73 1025.84 1025.92 1025.96 1025.96 1025.90 1025.80 1025.66 1025.49 1025.28 1025.06 1024.83 1024.58 1024.33 1024.08 1023.81 1023.53 1023.24 1022.92 1022.58
1014.45 1015.30 1016.11 1016.87 1017.58 1018.25 1018.89 1019.52 1020.16 1020.80 1021.46 1022.10 1022.72 1023.30 1023.83 1024.28 1024.67 1024.97 1025.22 1025.40 1025.55 1025.67 1025.78 1025.87 1025.95 1026.01 1026.05 1026.07 1026.04 1025.97 1025.85 1025.70 1025.50 1025.27 1025.02 1024.75 1024.47 1024.18 1023.89 1023.59 1023.29 1022.98 1022.66
1014.88 1015.82 1016.72 1017.57 1018.37 1019.11 1019.81 1020.49 1021.14 1021.77 1022.40 1023.00 1023.57 1024.09 1024.55 1024.93 1025.23 1025.46 1025.63 1025.74 1025.82 1025.87 1025.93 1025.98 1026.04 1026.09 1026.15 1026.18 1026.19 1026.16 1026.08 1025.95 1025.77 1025.54 1025.28 1024.98 1024.66 1024.34 1024.00 1023.67 1023.35 1023.02 1022.69
1015.43 1016.39 1017.34 1018.25 1019.10 1019.89 1020.62 1021.30 1021.95 1022.57 1023.16 1023.72 1024.23 1024.69 1025.08 1025.40 1025.64 1025.81 1025.92 1025.98 1026.00 1026.02 1026.04 1026.07 1026.12 1026.18 1026.26 1026.32 1026.37 1026.37 1026.33 1026.23 1026.07 1025.85 1025.58 1025.26 1024.92 1024.55 1024.17 1023.80 1023.42 1023.06 1022.70
1016.10 1017.06 1018.01 1018.92 1019.78 1020.57 1021.30 1021.98 1022.61 1023.20 1023.75 1024.25 1024.71 1025.11 1025.45 1025.71 1025.91 1026.03 1026.10 1026.13 1026.13 1026.13 1026.13 1026.16 1026.21 1026.29 1026.39 1026.48 1026.56 1026.60 1026.60 1026.53 1026.40 1026.19 1025.92 1025.58 1025.21 1024.81 1024.39 1023.96 1023.54 1023.12 1022.70
1016.85 1017.76 1018.67 1019.55 1020.38 1021.15 1021.86 1022.51 1023.10 1023.65 1024.15 1024.61 1025.02 1025.37 1025.66 1025.89 1026.05 1026.16 1026.21 1026.23 1026.22 1026.22 1026.23 1026.26 1026.33 1026.42 1026.54 1026.66 1026.77 1026.85 1026.87 1026.84 1026.72 1026.53 1026.26 1025.93 1025.54 1025.11 1024.65 1024.17 1023.70 1023.22 1022.75
1017.61 1018.44 1019.27 1020.09 1020.86 1021.58 1022.25 1022.86 1023.42 1023.94 1024.40 1024.82 1025.19 1025.50 1025.77 1025.97 1026.12 1026.21 1026.27 1026.29 1026.30 1026.31 1026.34 1026.39 1026.48 1026.60 1026.73 1026.88 1027.01 1027.11 1027.17 1027.15 1027.06 1026.88 1026.62 1026.29 1025.89 1025.44 1024.95 1024.44 1023.91 1023.38 1022.85
1018.28 1019.00 1019.74 1020.47 1021.18 1021.85 1022.48 1023.06 1023.59 1024.07 1024.51 1024.90 1025.25 1025.54 1025.79 1025.99 1026.13 1026.24 1026.31 1026.35 1026.39 1026.43 1026.48 1026.57 1026.68 1026.82 1026.98 1027.14 1027.29 1027.41 1027.48 1027.48 1027.41 1027.24 1026.99 1026.66 1026.26 1025.80 1025.29 1024.75 1024.18 1023.60 1023.01
1018.78 1019.39 1020.04 1020.69 1021.33 1021.96 1022.55 1023.10 1023.62 1024.09 1024.52 1024.90 1025.24 1025.53 1025.78 1025.98 1026.14 1026.26 1026.36 1026.43 1026.51 1026.59 1026.68 1026.80 1026.94 1027.11 1027.29 1027.46 1027.63 1027.76 1027.83 1027.84 1027.77 1027.62 1027.37 1027.04 1026.64 1026.17 1025.64 1025.08 1024.48 1023.85 1023.21
1019.08 1019.60 1020.16 1020.75 1021.35 1021.94 1022.51 1023.06 1023.58 1024.05 1024.48 1024.87 1025.21 1025.51 1025.77 1025.98 1026.16 1026.31 1026.43 1026.55 1026.66 1026.78 1026.92 1027.07 1027.25 1027.44 1027.64 1027.83 1028.00 1028.14 1028.21 1028.22 1028.15 1027.99 1027.75 1027.41 1027.00 1026.52 1025.99 1025.40 1024.77 1024.12 1023.44
1019.23 1019.68 1020.18 1020.73 1021.30 1021.88 1022.45 1023.00 1023.53 1024.02 1024.46 1024.86 1025.21 1025.52 1025.78 1026.01 1026.20 1026.37 1026.53 1026.68 1026.83 1026.99 1027.17 1027.36 1027.57 1027.79 1028.01 1028.21 1028.38 1028.51 1028.58 1028.58 1028.50 1028.33 1028.08 1027.74 1027.31 1026.82 1026.27 1025.67 1025.02 1024.34 1023.64
1019.33 1019.74 1020.21 1020.73 1021.29 1021.87 1022.45 1023.01 1023.55 1024.05 1024.50 1024.90 1025.26 1025.56 1025.83 1026.06 1026.26 1026.44 1026.61 1026.79 1026.97 1027.17 1027.38 1027.60 1027.84 1028.08 1028.32 1028.53 1028.71 1028.83 1028.89 1028.88 1028.78 1028.59 1028.32 1027.96 1027.53 1027.02 1026.46 1025.84 1025.18 1024.49 1023.77
1019.49 1019.88 1020.34 1020.85 1021.41 1021.99 1022.57 1023.13 1023.67 1024.16 1024.61 1025.00 1025.34 1025.63 1025.88 1026.10 1026.29 1026.47 1026.65 1026.84 1027.03 1027.25 1027.49 1027.74 1027.99 1028.25 1028.50 1028.72 1028.89 1029.01 1029.06 1029.03 1028.92 1028.72 1028.43 1028.05 1027.60 1027.08 1026.51 1025.88 1025.22 1024.53 1023.81
1019.80 1020.19 1020.64 1021.15 1021.70 1022.26 1022.83 1023.37 1023.88 1024.35 1024.77 1025.12 1025.43 1025.69 1025.90 1026.09 1026.26 1026.42 1026.59 1026.77 1026.97 1027.19 1027.44 1027.70 1027.96 1028.23 1028.48 1028.70 1028.87 1028.99 1029.03 1028.99 1028.87 1028.65 1028.35 1027.96 1027.50 1026.98 1026.40 1025.78 1025.12 1024.44 1023.73
Thickness
5739 5737 5735 5733 5731 5729 5728 5727 5726 5725 5724 5723 5722 5721 5719 5718 5717 5715 5716 5715 5714 5713 5712 5711 5709 5709 5709 5710 5709 5709 5708 5706 5702 5704 5705 5702 5697 5695 5694 5692 5693 5690 5688
5739 5736 5733 5731 5729 5728 5726 5725 5724 5722 5721 5720 5720 5718 5717 5716 5714 5713 5711 5711 5710 5709 5708 5707 5705 5704 5702 5703 5703 5702 5701 5699 5697 5694 5694 5693 5688 5686 5685 5683 5685 5684 5681
5739 5735 5731 5729 5727 5725 5724 5723 5721 5720 5718 5718 5717 5715 5714 5712 5711 5709 5708 5707 5706 5704 5703 5701 5700 5698 5695 5695 5693 5694 5693 5693 5690 5688 5686 5683 5682 5679 5677 5676 5676 5672 5672
5738 5734 5731 5728 5726 5724 5722 5720 5718 5716 5715 5714 5713 5712 5710 5709 5707 5706 5704 5702 5699 5697 5696 5695 5693 5691 5689 5687 5685 5683 5683 5682 5680 5679 5677 5675 5672 5669 5667 5666 5665 5663 5661
5737 5734 5731 5728 5725 5722 5719 5717 5715 5714 5712 5710 5709 5707 5706 5704 5703 5701 5698 5695 5692 5690 5688 5686 5684 5681 5679 5678 5679 5676 5674 5672 5671 5669 5667 5664 5660 5656 5654 5653 5652 5650 5650
5734 5732 5729 5726 5723 5719 5716 5714 5712 5710 5708 5706 5704 5702 5700 5699 5696 5694 5692 5689 5685 5682 5679 5676 5673 5670 5667 5665 5662 5660 5659 5659 5658 5656 5654 5649 5644 5641 5638 5639 5638 5637 5635
5732 5729 5726 5723 5719 5716 5713 5710 5707 5705 5703 5700 5698 5696 5693 5690 5687 5685 5682 5681 5677 5674 5670 5667 5665 5661 5658 5655 5650 5647 5644 5641 5640 5640 5637 5632 5629 5626 5623 5624 5621 5619 5616
5728 5725 5723 5719 5715 5712 5708 5704 5701 5699 5696 5693 5690 5688 5685 5680 5678 5675 5673 5671 5668 5663 5660 5657 5653 5650 5647 5644 5641 5637 5632 5627 5626 5624 5619 5615 5611 5608 5606 5606 5604 5605 5604
5723 5720 5718 5715 5711 5707 5702 5698 5695 5692 5689 5685 5682 5679 5675 5669 5667 5665 5664 5661 5656 5651 5647 5644 5641 5637 5632 5630 5629 5624 5619 5614 5608 5605 5601 5597 5594 5592 5590 5592 5591 5592 5592
5718 5715 5712 5709 5705 5700 5696 5691 5688 5684 5680 5676 5672 5668 5664 5659 5655 5655 5654 5652 5646 5640 5634 5630 5625 5622 5618 5617 5616 5612 5607 5601 5598 5594 5589 5585 5583 5579 5576 5573 5573 5573 5573
5711 5707 5704 5700 5696 5692 5688 5683 5679 5674 5669 5665 5661 5656 5651 5648 5644 5643 5642 5642 5637 5631 5625 5618 5611 5606 5604 5601 5600 5596 5590 5586 5585 5582 5579 5575 5571 5567 5563 5559 5554 5553 5552
5701 5697 5693 5689 5687 5683 5678 5674 5669 5665 5659 5652 5647 5643 5638 5635 5632 5629 5629 5627 5624 5619 5612 5605 5597 5592 5589 5586 5583 5577 5574 5572 5573 5570 5566 5563 5558 5553 5547 5542 5537 5533 5529
5689 5685 5681 5677 5673 5671 5668 5664 5659 5655 5650 5644 5639 5634 5627 5622 5617 5615 5613 5611 5608 5604 5596 5588 5583 5579 5575 5572 5567 5564 5563 5562 5559 5556 5551 5546 5541 5536 5531 5528 5524 5519 5515
5678 5673 5668 5664 5660 5657 5654 5651 5648 5644 5640 5635 5630 5624 5617 5612 5607 5603 5599 5595 5591 5587 5581 5574 5570 5566 5563 5558 5555 5553 5550 5545 5543 5539 5534 5530 5526 5522 5519 5514 5510 5506 5504
5665 5660 5655 5650 5646 5641 5636 5632 5631 5628 5627 5624 5619 5614 5608 5601 5593 5590 5589 5585 5581 5576 5571 5566 5562 5559 5555 5550 5545 5540 5536 5532 5528 5523 5519 5515 5511 5507 5503 5498 5493 5490 5488
5653 5648 5644 5638 5632 5628 5623 5614 5608 5608 5605 5604 5602 5600 5591 5585 5579 5575 5572 5568 5564 5560 5559 5556 5550 5546 5541 5537 5533 5528 5522 5517 5511 5507 5503 5499 5495 5491 5487 5483 5479 5475 5472
5642 5637 5632 5626 5622 5617 5612 5607 5599 5590 5587 5585 5583 5580 5575 5569 5565 5561 5557 5553 5550 5546 5547 5542 5537 5532 5528 5523 5518 5514 5508 5502 5495 5493 5488 5483 5479 5475 5472 5468 5464 5460 5457
5628 5623 5619 5614 5610 5606 5602 5597 5593 5588 5581 5571 5564 5561 5558 5555 5551 5548 5544 5542 5540 5537 5535 5529 5524 5519 5514 5509 5504 5499 5494 5488 5483 5478 5474 5469 5464 5461 5458 5454 5450 5445 5442
5615 5610 5606 5602 5598 5594 5591 5586 5582 5576 5571 5563 5556 5548 5543 5540 5537 5535 5533 5535 5532 5527 5522 5516 5511 5506 5501 5495 5489 5483 5479 5474 5468 5464 5460 5454 5451 5448 5444 5441 5438 5432 5428
5602 5598 5595 5591 5588 5583 5579 5576 5571 5567 5562 5556 5551 5545 5539 5536 5533 5528 5526 5524 5520 5515 5510 5504 5498 5492 5486 5481 5475 5470 5467 5462 5456 5453 5448 5443 5439 5436 5433 5429 5426 5424 5421
5593 5587 5584 5583 5580 5575 5571 5567 5563 5558 5554 5549 5543 5536 5531 5533 5528 5522 5518 5513 5508 5502 5496 5491 5486 5480 5474 5468 5463 5458 5454 5450 5444 5440 5436 5432 5428 5426 5422 5420 5417 5415 5413
5586 5582 5579 5575 5570 5566 5562 5558 5554 5549 5544 5539 5533 5526 5520 5522 5518 5512 5506 5500 5495 5489 5484 5478 5474 5467 5460 5455 5450 5446 5442 5438 5433 5428 5425 5422 5419 5417 5415 5412 5409 5407 5405
5578 5575 5570 5566 5561 5553 5553 5549 5545 5541 5536 5531 5526 5520 5515 5511 5506 5500 5494 5488 5482 5477 5472 5467 5462 5456 5450 5444 5439 5435 5431 5426 5421 5417 5414 5413 5411 5409 5407 5405 5402 5400 5398
5570 5567 5563 5558 5554 5550 5545 5541 5536 5532 5527 5522 5517 5511 5506 5500 5496 5489 5484 5479 5473 5467 5462 5456 5451 5445 5439 5435 5431 5427 5420 5414 5409 5409 5406 5404 5404 5403 5401 5398 5397 5395 5393
5562 5558 5554 5550 5546 5542 5538 5533 5528 5523 5518 5513 5507 5502 5498 5492 5487 5481 5476 5470 5464 5459 5453 5448 5443 5438 5433 5428 5424 5419 5412 5407 5402 5400 5398 5399 5399 5397 5396 5394 5393 5391 5389
5553 5549 5545 5541 5537 5533 5529 5524 5519 5514 5510 5505 5500 5495 5490 5485 5480 5474 5469 5463 5459 5453 5448 5443 5438 5433 5428 5424 5418 5412 5407 5403 5399 5396 5393 5394 5396 5395 5392 5390 5389 5388 5387